TDRS 7

导读

TDRS 7(跟踪与数据中继卫星7号)是美国NASA研制的TDRS系列中继卫星,于1995年7月13日发射升空。该卫星主要为低轨航天器(如国际空间站、哈勃望远镜等)提供高速数据中继与通信支持,构建了全球覆盖的空间通信网络。作为NASA近空通信体系的重要成员,它已在轨服役超过三十年,持续保障各类航天任务的数据传输,目前仍承担关键通信职能,计划将服役至2030年代。

Basic Information
目录编号:
23613
目录名称:
TDRS 7
国际标识:
1995-035B
轨道中心:
EARTH
卫星名称:
TDRS 7
卫星全名:
--
卫星状态:
在轨 (已飞行11297 天)
发射日期:
1995-07-13 UTC
国别 :
美国 (US)
星等 :
--
Orbit Information
数据来源 国际轨道数据 AOE轨道数据
星历时间 2026-06-17T01:27:32+0800
14小时前
查看轨道信息
2026-06-16T08:00:00+0800
1天前
查看轨道信息
半长轴 42166.775km 42166.607km
偏心率 0.0011038 0.0010945
轨道倾角 13.377° 13.378°
近地点辐角 78.733° 77.898°
升交点赤经 348.194° 348.202°
平近点角 188.802° 287.050°
近地点 35742.094km 35742.318km
远地点 35835.182km 35834.622km
周期 1436.201分钟 1436.193分钟
每日圈数 1.002645 1.002651
Detailed Information
使用方式:
暂无
2D Orbit Map
3D Orbit Map
Orbit Altitude Analysis Chart
Orbit Inclination Analysis Chart
Orbit Comprehensive Analysis Chart
View Comprehensive Chart